STARLINK-4575 (53565 NORAD) Tracking and Keplerian Element Data

This shows tracking and keplerian element data for the satellite.

Feedback or suggestion? Click here.




ElementValue
Catalog53565
NameSTARLINK-4575
Epoch Orbit1461
Epoch Day325.25001157
Epoch Year2022
RAAN61.1937
Inclination53.2155
Eccentricity0.0001339
Argument of Perigee69.9036
Mean Anonmoly291.1046
Mean Motion15.08791606
Decay Rate0.00039816
L11 53565U 22101AQ 22325.25001157 .00039816 00000+0 25090-2 0 9999
L22 53565 53.2155 61.1937 0001339 69.9036 291.1046 15.08791606 14611



Live tracking and technical data element details for STARLINK-4575 (NORAD 53565). STARLINK-4575 can be tracked NOW for your location showing map with azimuth and elevation plus other details from your city location.







IsCatalogInMostPopularTable: catalog: 53565, numindb: 4
Update: records affected: 1



GetName: 53565 STARLINK-4575

Hit Count: updated at: Thu, 08 Dec 2022 08:48:39 GMT